Regional Weather Roundup
Issued by NWS Midland/Odessa, TX

Skip options and go directly to product.
Home | Oldest Version | Previous Version | Current Version | All | Text Only | Save Text | Print | Product List | Glossary Off

Skip product version selection by date and time.   

680
ASUS44 KMAF 222310
RWRMAF
MIDLAND AREA WEATHER ROUNDUP
NATIONAL WEATHER SERVICE MIDLAND TX
600 PM CDT WED OCT 22 2014

...IN SOUTHWEST TEXAS AND SOUTHEAST NEW MEXICO...

CITY           SKY/WX    TMP DP  RH WIND       PRES   REMARKS
ALPINE         MOSUNNY   68  58  68 S10       30.16S
ANDREWS        CLOUDY    68  62  82 S7        30.08S
ARTESIA        NOT AVBL
BIG SPRING     CLOUDY    69  63  80 E7        30.12R
CARLSBAD       MOSUNNY   73  60  63 E6        30.04F
DRYDEN           N/A     68  62  81 E13       30.07S
FORT STOCKTON  PTSUNNY   71  60  68 SE14      30.05S
GUAD PASS      SUNNY     69  52  54 VRB3      30.17R
HOBBS          MOSUNNY   72  55  56 CALM      30.09S
MARFA          MOSUNNY   70  55  60 S8        30.15S
MIDLAND AIRPK  CLOUDY    72  59  64 SE8       30.08R
MIDLAND INTL   CLOUDY    73  56  54 S16       30.07R
ODESSA         PTSUNNY   72  56  57 S12       30.08R
PECOS          PTSUNNY   77  60  56 E10       30.02S
PRESIDIO       FAIR      79  56  44 SE5       30.02S
SEMINOLE       CLOUDY    67  62  84 SE13      30.10S
SNYDER         CLOUDY    63  61  94 E8        30.11S
WINK           PTSUNNY   68  61  78 E14G22    30.04R
$$
...OTHER STATIONS IN TEXAS...

CITY           SKY/WX    TMP DP  RH WIND       PRES   REMARKS
ABILENE        CLOUDY    70  57  63 CALM      30.10S
AMARILLO       MOSUNNY   64  61  90 SE17      30.06S
AUSTIN         PTSUNNY   80  59  48 E9        30.04R
BROWNSVILLE    PTSUNNY   81  68  64 NE12      29.97R
CORPUS CHRISTI MOSUNNY   79  66  64 E13       30.01R
DALLAS FTW     MOCLDY    77  57  50 SE8       30.07S
DEL RIO        LGT RAIN  67  64  90 CALM      30.07R
EL PASO        MOSUNNY   76  51  41 VRB3      30.07S
HOUSTON INT    PTCLDY    77  58  51 NE7       30.04R
LUBBOCK        PTSUNNY   65  60  84 SE12      30.09R
SAN ANGELO     CLOUDY    74  53  48 SE6       30.08S
SAN ANTONIO    MOSUNNY   82  54  37 E8        30.03S
WACO           PTCLDY    77  58  51 E5        30.06S
WICHITA FALLS  NOT AVBL
$$
...OTHER LOCATIONS IN NEW MEXICO...

CITY           SKY/WX    TMP DP  RH WIND       PRES   REMARKS
ALAMAGORDO     NOT AVBL
ALBUQUERQUE    PTSUNNY   73  38  27 CALM      30.13F
CANNON AFB     SUNNY     74  51  44 SW10      30.06F
CLOVIS         SUNNY     73  50  43 S9        30.08F
HOLLOMAN AFB   SUNNY     74  49  42 SW5       30.08S
ROSWELL        SUNNY     73  56  54 SE9       30.06S
RUIDOSO        MOSUNNY   64  43  45 N9        30.22S
SANTA FE       PTSUNNY   70  37  29 CALM      30.16S
TRUTH OR CONSE SUNNY     73  46  38 S6        30.10S
TUCUMCARI      MOSUNNY   68  57  68 SE10      30.01S
$$

USA.gov is the U.S. government's official web portal to all federal, state and local government web resources and services.